| time (UTC) | temp F | wind direction | speed MPH | gust MPH | rain 1hr in | rain 24hr in | rain mn in | humidity % | barometer mb |
| 20260508065513 | 38 | 170 | 0.0 | 0.0 | 0.00 | 0.00 | 0.00 | 68 | 1008.7 |
| 20260508065011 | 38 | 170 | 0.0 | 0.0 | 0.00 | 0.00 | 0.00 | 68 | 1008.9 |
| 20260508064509 | 38 | 170 | 0.0 | 0.0 | 0.00 | 0.00 | 0.00 | 68 | 1008.7 |
| 20260508064006 | 38 | 170 | 0.0 | 0.0 | 0.00 | 0.00 | 0.00 | 68 | 1008.8 |
| 20260508063503 | 38 | 170 | 0.0 | 0.0 | 0.00 | 0.00 | 0.00 | 68 | 1008.8 |
| 20260508063001 | 38 | 170 | 0.0 | 0.0 | 0.00 | 0.00 | 0.00 | 68 | 1008.8 |
| 20260508062459 | 38 | 170 | 0.0 | 0.0 | 0.00 | 0.00 | 0.00 | 68 | 1008.9 |
| 20260508061955 | 38 | 170 | 0.0 | 0.0 | 0.00 | 0.00 | 0.00 | 68 | 1009.0 |
| 20260508061453 | 38 | 170 | 0.0 | 0.0 | 0.00 | 0.00 | 0.00 | 67 | 1009.0 |
| 20260508060948 | 38 | 170 | 0.0 | 0.0 | 0.00 | 0.00 | 0.00 | 67 | 1009.4 |
| 20260508060446 | 38 | 170 | 0.0 | 0.0 | 0.00 | 0.00 | 0.00 | 67 | 1009.0 |
| 20260508055943 | 38 | 170 | 0.0 | 0.0 | 0.00 | 0.00 | 0.00 | 67 | 1009.2 |
| 20260508055439 | 38 | 170 | 0.0 | 0.0 | 0.00 | 0.00 | 0.00 | 67 | 1009.2 |
| 20260508054936 | 38 | 170 | 0.0 | 0.0 | 0.00 | 0.00 | 0.00 | 67 | 1009.2 |
| 20260508054433 | 39 | 170 | 0.0 | 0.0 | 0.00 | 0.00 | 0.00 | 67 | 1009.3 |
| 20260508053930 | 39 | 170 | 0.0 | 0.0 | 0.00 | 0.00 | 0.00 | 66 | 1009.0 |
| 20260508053427 | 39 | 170 | 0.0 | 0.0 | 0.00 | 0.00 | 0.00 | 66 | 1008.9 |
| 20260508052925 | 39 | 170 | 0.0 | 0.0 | 0.00 | 0.00 | 0.00 | 65 | 1009.4 |
| 20260508052422 | 40 | 170 | 0.0 | 0.0 | 0.00 | 0.00 | 0.00 | 65 | 1009.2 |
| 20260508051918 | 40 | 170 | 0.0 | 0.0 | 0.00 | 0.00 | 0.00 | 63 | 1009.4 |
| 20260508051414 | 40 | 170 | 0.0 | 0.0 | 0.00 | 0.00 | 0.00 | 64 | 1009.5 |
| 20260508050910 | 40 | 163 | 0.0 | 0.0 | 0.00 | 0.00 | 0.00 | 64 | 1009.6 |
| 20260508050407 | 40 | 166 | 0.0 | 0.0 | 0.00 | 0.00 | 0.00 | 64 | 1009.3 |
| 20260508045903 | 40 | 166 | 0.0 | 0.0 | 0.00 | 0.00 | 0.00 | 63 | 1009.6 |
| 20260508045401 | 40 | 166 | 0.0 | 0.0 | 0.00 | 0.00 | 0.00 | 63 | 1009.4 |
| 20260508044858 | 40 | 166 | 0.0 | 0.0 | 0.00 | 0.00 | 0.00 | 62 | 1009.4 |
| 20260508044355 | 40 | 166 | 0.0 | 0.0 | 0.00 | 0.00 | 0.00 | 63 | 1009.4 |
| 20260508043850 | 40 | 166 | 0.0 | 0.0 | 0.00 | 0.00 | 0.00 | 61 | 1009.6 |
| 20260508043348 | 41 | 166 | 0.0 | 0.0 | 0.00 | 0.00 | 0.00 | 61 | 1009.6 |
| 20260508042844 | 41 | 166 | 0.0 | 0.0 | 0.00 | 0.00 | 0.00 | 59 | 1009.7 |
| 20260508042342 | 41 | 166 | 0.0 | 0.0 | 0.00 | 0.00 | 0.00 | 61 | 1009.7 |
| 20260508041839 | 41 | 166 | 0.0 | 0.0 | 0.00 | 0.00 | 0.00 | 61 | 1009.7 |
| 20260508041335 | 41 | 166 | 0.0 | 0.0 | 0.00 | 0.00 | 0.00 | 60 | 1009.6 |
| 20260508040832 | 41 | 166 | 0.0 | 0.0 | 0.00 | 0.00 | 0.00 | 60 | 1009.5 |
| 20260508040329 | 41 | 166 | 0.0 | 0.0 | 0.00 | 0.00 | 0.00 | 61 | 1009.9 |
| 20260508035826 | 41 | 166 | 0.0 | 0.0 | 0.00 | 0.00 | 0.00 | 60 | 1009.8 |
| 20260508035324 | 42 | 166 | 0.0 | 0.0 | 0.00 | 0.00 | 0.00 | 59 | 1009.7 |
| 20260508034820 | 42 | 166 | 0.0 | 0.0 | 0.00 | 0.00 | 0.00 | 58 | 1009.9 |
| 20260508034318 | 42 | 166 | 0.0 | 0.0 | 0.00 | 0.00 | 0.00 | 58 | 1009.9 |
| 20260508033814 | 42 | 166 | 0.0 | 0.0 | 0.00 | 0.00 | 0.00 | 57 | 1010.0 |
| 20260508033313 | 42 | 166 | 0.0 | 0.0 | 0.00 | 0.00 | 0.00 | 57 | 1010.1 |
| 20260508032810 | 43 | 166 | 0.0 | 0.0 | 0.00 | 0.00 | 0.00 | 57 | 1009.9 |
| 20260508032307 | 43 | 166 | 0.0 | 0.0 | 0.00 | 0.00 | 0.00 | 56 | 1010.0 |
| 20260508031804 | 43 | 166 | 0.0 | 0.0 | 0.00 | 0.00 | 0.00 | 55 | 1010.0 |
| 20260508031300 | 43 | 166 | 0.0 | 0.0 | 0.00 | 0.00 | 0.00 | 54 | 1010.0 |
| 20260508030756 | 44 | 166 | 0.0 | 0.0 | 0.00 | 0.00 | 0.00 | 54 | 1010.0 |
| 20260508030254 | 44 | 166 | 0.0 | 0.0 | 0.00 | 0.00 | 0.00 | 53 | 1010.1 |
| 20260508025751 | 44 | 166 | 0.0 | 0.0 | 0.00 | 0.00 | 0.00 | 53 | 1009.9 |
| 20260508025248 | 44 | 166 | 0.0 | 0.0 | 0.00 | 0.00 | 0.00 | 52 | 1009.8 |
| 20260508024744 | 44 | 166 | 0.0 | 0.0 | 0.00 | 0.00 | 0.00 | 51 | 1009.8 |
| 20260508024241 | 45 | 166 | 0.0 | 0.0 | 0.00 | 0.00 | 0.00 | 51 | 1010.0 |
| 20260508023738 | 45 | 166 | 0.0 | 0.0 | 0.00 | 0.00 | 0.00 | 50 | 1010.0 |
| 20260508023235 | 45 | 166 | 0.0 | 0.0 | 0.00 | 0.00 | 0.00 | 50 | 1009.8 |
| 20260508022731 | 46 | 166 | 0.0 | 0.0 | 0.00 | 0.00 | 0.00 | 49 | 1009.9 |
| 20260508022227 | 46 | 166 | 0.0 | 0.0 | 0.00 | 0.00 | 0.00 | 48 | 1010.0 |
| 20260508021724 | 46 | 166 | 0.0 | 0.0 | 0.00 | 0.00 | 0.00 | 47 | 1009.8 |
| 20260508021219 | 47 | 166 | 0.0 | 0.0 | 0.00 | 0.00 | 0.00 | 46 | 1009.9 |
| 20260508020717 | 47 | 166 | 0.0 | 0.0 | 0.00 | 0.00 | 0.00 | 47 | 1009.9 |
| 20260508020214 | 48 | 166 | 0.0 | 0.0 | 0.00 | 0.00 | 0.00 | 44 | 1009.8 |
| 20260508015711 | 48 | 166 | 0.0 | 0.0 | 0.00 | 0.00 | 0.00 | 43 | 1009.6 |
| 20260508015208 | 49 | 166 | 0.0 | 0.0 | 0.00 | 0.00 | 0.00 | 42 | 1009.5 |
| 20260508014705 | 50 | 166 | 0.0 | 0.0 | 0.00 | 0.00 | 0.00 | 41 | 1009.6 |
| 20260508014201 | 50 | 166 | 0.0 | 0.0 | 0.00 | 0.00 | 0.00 | 40 | 1009.6 |
| 20260508013658 | 51 | 165 | 0.0 | 0.0 | 0.00 | 0.00 | 0.00 | 38 | 1009.5 |
| 20260508013154 | 51 | 164 | 0.0 | 0.0 | 0.00 | 0.00 | 0.00 | 38 | 1009.5 |
| 20260508012652 | 52 | 165 | 0.0 | 0.0 | 0.00 | 0.00 | 0.00 | 37 | 1009.4 |
| 20260508012149 | 52 | 166 | 0.0 | 0.0 | 0.00 | 0.00 | 0.00 | 36 | 1009.4 |
| 20260508011647 | 53 | 165 | 0.0 | 0.0 | 0.00 | 0.00 | 0.00 | 35 | 1009.3 |
| 20260508011144 | 54 | 167 | 0.0 | 0.0 | 0.00 | 0.00 | 0.00 | 34 | 1009.3 |
| 20260508010641 | 55 | 167 | 0.0 | 0.0 | 0.00 | 0.00 | 0.00 | 33 | 1009.5 |
| 20260508010139 | 55 | 179 | 0.0 | 0.0 | 0.00 | 0.00 | 0.00 | 32 | 1009.3 |
| 20260508005636 | 56 | 171 | 0.0 | 0.0 | 0.00 | 0.00 | 0.00 | 31 | 1009.4 |
| 20260508005132 | 56 | 181 | 0.0 | 0.0 | 0.00 | 0.00 | 0.00 | 31 | 1009.5 |
| 20260508004628 | 57 | 272 | 0.0 | 0.0 | 0.00 | 0.00 | 0.00 | 30 | 1009.4 |
| 20260508004125 | 58 | 173 | 1.0 | 2.0 | 0.00 | 0.00 | 0.00 | 29 | 1009.4 |
| 20260508003621 | 58 | 171 | 0.0 | 0.0 | 0.00 | 0.00 | 0.00 | 29 | 1009.3 |
| 20260508003119 | 58 | 174 | 0.0 | 2.0 | 0.00 | 0.00 | 0.00 | 29 | 1009.4 |
| 20260508002615 | 58 | 310 | 2.0 | 3.0 | 0.00 | 0.00 | 0.00 | 29 | 1009.6 |
| 20260508002113 | 58 | 203 | 0.0 | 0.0 | 0.00 | 0.00 | 0.00 | 29 | 1009.3 |
| 20260508001608 | 58 | 161 | 0.0 | 0.0 | 0.00 | 0.00 | 0.00 | 29 | 1009.5 |
| 20260508001104 | 57 | 146 | 0.0 | 2.0 | 0.00 | 0.00 | 0.00 | 29 | 1009.4 |
| 20260508000600 | 58 | 279 | 2.0 | 3.0 | 0.00 | 0.00 | 0.00 | 28 | 1009.4 |
| 20260508000058 | 58 | 22 | 2.0 | 3.0 | 0.00 | 0.00 | 0.00 | 29 | 1009.2 |
| 20260507235554 | 57 | 53 | 0.0 | 2.0 | 0.00 | 0.00 | 0.00 | 29 | 1009.4 |
| 20260507235052 | 58 | 331 | 2.0 | 5.0 | 0.00 | 0.00 | 0.00 | 28 | 1009.5 |
| 20260507234548 | 58 | 165 | 4.0 | 5.0 | 0.00 | 0.00 | 0.00 | 28 | 1009.6 |
| 20260507234044 | 58 | 319 | 2.0 | 3.0 | 0.00 | 0.00 | 0.00 | 28 | 1009.6 |
| 20260507233541 | 58 | 5 | 4.0 | 5.0 | 0.00 | 0.00 | 0.00 | 28 | 1009.8 |
| 20260507233040 | 58 | 249 | 0.0 | 2.0 | 0.00 | 0.00 | 0.00 | 30 | 1009.5 |
| 20260507232536 | 59 | 60 | 3.0 | 3.0 | 0.00 | 0.00 | 0.00 | 28 | 1009.5 |
| 20260507232033 | 59 | 165 | 1.0 | 2.0 | 0.00 | 0.00 | 0.00 | 27 | 1009.8 |
| 20260507231530 | 60 | 198 | 2.0 | 2.0 | 0.00 | 0.00 | 0.00 | 28 | 1009.8 |
| 20260507231027 | 60 | 150 | 0.0 | 2.0 | 0.00 | 0.00 | 0.00 | 27 | 1009.9 |
| 20260507230524 | 60 | 222 | 3.0 | 5.0 | 0.00 | 0.00 | 0.00 | 28 | 1010.0 |
| 20260507230020 | 60 | 193 | 0.0 | 2.0 | 0.00 | 0.00 | 0.00 | 27 | 1009.7 |
| 20260507225515 | 60 | 174 | 2.0 | 3.0 | 0.00 | 0.00 | 0.00 | 26 | 1010.0 |
| 20260507225012 | 60 | 180 | 0.0 | 2.0 | 0.00 | 0.00 | 0.00 | 27 | 1010.1 |
| 20260507224508 | 60 | 13 | 2.0 | 3.0 | 0.00 | 0.00 | 0.00 | 26 | 1009.9 |
| 20260507224004 | 60 | 296 | 6.0 | 9.0 | 0.00 | 0.00 | 0.00 | 25 | 1009.9 |
| 20260507223500 | 61 | 306 | 3.0 | 3.0 | 0.00 | 0.00 | 0.00 | 27 | 1010.0 |
| 20260507222958 | 60 | 201 | 1.0 | 2.0 | 0.00 | 0.00 | 0.00 | 28 | 1010.1 |
| 20260507222455 | 60 | 231 | 2.0 | 3.0 | 0.00 | 0.00 | 0.00 | 27 | 1010.0 |
| 20260507221951 | 61 | 37 | 6.0 | 7.0 | 0.00 | 0.00 | 0.00 | 26 | 1010.0 |
| 20260507221448 | 61 | 283 | 2.0 | 2.0 | 0.00 | 0.00 | 0.00 | 26 | 1010.1 |
| 20260507220944 | 60 | 262 | 2.0 | 3.0 | 0.00 | 0.00 | 0.00 | 29 | 1010.1 |
| 20260507220442 | 61 | 203 | 1.0 | 2.0 | 0.00 | 0.00 | 0.00 | 27 | 1010.1 |
| 20260507215938 | 61 | 276 | 4.0 | 5.0 | 0.00 | 0.00 | 0.00 | 27 | 1010.2 |
| 20260507215435 | 60 | 188 | 1.0 | 2.0 | 0.00 | 0.00 | 0.00 | 28 | 1010.1 |
| 20260507214932 | 60 | 279 | 3.0 | 3.0 | 0.00 | 0.00 | 0.00 | 27 | 1010.3 |
| 20260507214430 | 61 | 351 | 9.0 | 12.0 | 0.00 | 0.00 | 0.00 | 25 | 1010.1 |
| 20260507213925 | 62 | 236 | 2.0 | 3.0 | 0.00 | 0.00 | 0.00 | 26 | 1010.2 |
| 20260507213422 | 60 | 347 | 4.0 | 5.0 | 0.00 | 0.00 | 0.00 | 25 | 1010.3 |
| 20260507212919 | 60 | 116 | 3.0 | 5.0 | 0.00 | 0.00 | 0.00 | 27 | 1010.3 |
| 20260507212415 | 61 | 332 | 5.0 | 7.0 | 0.00 | 0.00 | 0.00 | 25 | 1010.5 |
| 20260507211912 | 60 | 214 | 4.0 | 5.0 | 0.00 | 0.00 | 0.00 | 28 | 1010.4 |
| 20260507211408 | 61 | 358 | 6.0 | 7.0 | 0.00 | 0.00 | 0.00 | 25 | 1010.6 |
| 20260507210905 | 60 | 219 | 3.0 | 3.0 | 0.00 | 0.00 | 0.00 | 27 | 1010.7 |
| 20260507210402 | 60 | 271 | 2.0 | 3.0 | 0.00 | 0.00 | 0.00 | 25 | 1010.5 |
| 20260507205858 | 59 | 105 | 2.0 | 3.0 | 0.00 | 0.00 | 0.00 | 27 | 1010.6 |
| 20260507205355 | 59 | 265 | 3.0 | 3.0 | 0.00 | 0.00 | 0.00 | 27 | 1010.7 |
| 20260507204852 | 60 | 338 | 4.0 | 10.0 | 0.00 | 0.00 | 0.00 | 28 | 1010.7 |
| 20260507204349 | 60 | 144 | 2.0 | 5.0 | 0.00 | 0.00 | 0.00 | 28 | 1010.7 |
| 20260507203847 | 60 | 229 | 4.0 | 5.0 | 0.00 | 0.00 | 0.00 | 27 | 1010.9 |
| 20260507203344 | 60 | 308 | 4.0 | 5.0 | 0.00 | 0.00 | 0.00 | 28 | 1011.0 |
| 20260507202840 | 60 | 293 | 8.0 | 10.0 | 0.00 | 0.00 | 0.00 | 26 | 1010.9 |
| 20260507202337 | 60 | 211 | 3.0 | 5.0 | 0.00 | 0.00 | 0.00 | 27 | 1010.8 |
| 20260507201832 | 60 | 145 | 1.0 | 2.0 | 0.00 | 0.00 | 0.00 | 28 | 1011.1 |
| 20260507201328 | 59 | 170 | 1.0 | 2.0 | 0.00 | 0.00 | 0.00 | 28 | 1011.0 |
| 20260507200825 | 58 | 283 | 2.0 | 2.0 | 0.00 | 0.00 | 0.00 | 26 | 1010.9 |
| 20260507200321 | 59 | 81 | 4.0 | 5.0 | 0.00 | 0.00 | 0.00 | 29 | 1011.1 |
| 20260507195817 | 59 | 185 | 2.0 | 3.0 | 0.00 | 0.00 | 0.00 | 29 | 1011.1 |
| 20260507195314 | 58 | 232 | 4.0 | 7.0 | 0.00 | 0.00 | 0.00 | 27 | 1011.4 |
| 20260507194812 | 59 | 167 | 1.0 | 2.0 | 0.00 | 0.00 | 0.00 | 27 | 1011.2 |
| 20260507194308 | 60 | 54 | 5.0 | 5.0 | 0.00 | 0.00 | 0.00 | 29 | 1011.2 |
| 20260507193804 | 59 | 206 | 2.0 | 3.0 | 0.00 | 0.00 | 0.00 | 30 | 1011.4 |
| 20260507193301 | 58 | 257 | 5.0 | 7.0 | 0.00 | 0.00 | 0.00 | 31 | 1011.4 |
| 20260507192757 | 58 | 29 | 3.0 | 5.0 | 0.00 | 0.00 | 0.00 | 29 | 1011.1 |
| 20260507192254 | 58 | 155 | 2.0 | 3.0 | 0.00 | 0.00 | 0.00 | 30 | 1011.4 |
| 20260507191750 | 57 | 294 | 2.0 | 3.0 | 0.00 | 0.00 | 0.00 | 32 | 1011.5 |
| 20260507191247 | 57 | 130 | 2.0 | 3.0 | 0.00 | 0.00 | 0.00 | 27 | 1011.4 |
| 20260507190744 | 58 | 165 | 2.0 | 5.0 | 0.00 | 0.00 | 0.00 | 29 | 1011.4 |
| 20260507190242 | 57 | 85 | 2.0 | 3.0 | 0.00 | 0.00 | 0.00 | 31 | 1011.4 |
| 20260507185741 | 57 | 299 | 3.0 | 3.0 | 0.00 | 0.00 | 0.00 | 33 | 1011.3 |
| 20260507185237 | 57 | 197 | 2.0 | 3.0 | 0.00 | 0.00 | 0.00 | 27 | 1011.3 |
| 20260507184735 | 56 | 357 | 2.0 | 3.0 | 0.00 | 0.00 | 0.00 | 33 | 1011.2 |
| 20260507184233 | 56 | 163 | 0.0 | 2.0 | 0.00 | 0.00 | 0.00 | 28 | 1011.6 |
| 20260507183729 | 56 | 100 | 5.0 | 9.0 | 0.00 | 0.00 | 0.00 | 28 | 1011.6 |
| 20260507183226 | 56 | 6 | 6.0 | 9.0 | 0.00 | 0.00 | 0.00 | 31 | 1011.7 |
| 20260507182723 | 56 | 174 | 0.0 | 0.0 | 0.00 | 0.00 | 0.00 | 31 | 1011.7 |
| 20260507182218 | 57 | 96 | 3.0 | 3.0 | 0.00 | 0.00 | 0.00 | 28 | 1011.7 |
| 20260507181715 | 56 | 25 | 7.0 | 10.0 | 0.00 | 0.00 | 0.00 | 29 | 1011.8 |
| 20260507181206 | 56 | 32 | 5.0 | 5.0 | 0.00 | 0.00 | 0.00 | 30 | 1011.8 |
| 20260507180702 | 56 | 17 | 5.0 | 7.0 | 0.00 | 0.00 | 0.00 | 30 | 1011.7 |
| 20260507180200 | 54 | 132 | 1.0 | 2.0 | 0.00 | 0.00 | 0.00 | 32 | 1011.9 |
| 20260507175655 | 55 | 21 | 6.0 | 7.0 | 0.00 | 0.00 | 0.00 | 31 | 1011.6 |
| 20260507175152 | 56 | 4 | 4.0 | 5.0 | 0.00 | 0.00 | 0.00 | 30 | 1012.0 |
| 20260507174649 | 56 | 270 | 3.0 | 3.0 | 0.00 | 0.00 | 0.00 | 31 | 1012.0 |
| 20260507174148 | 56 | 304 | 3.0 | 5.0 | 0.00 | 0.00 | 0.00 | 35 | 1011.9 |
| 20260507173644 | 55 | 169 | 1.0 | 2.0 | 0.00 | 0.00 | 0.00 | 39 | 1012.1 |
| 20260507173141 | 54 | 332 | 3.0 | 3.0 | 0.00 | 0.00 | 0.00 | 32 | 1011.9 |
| 20260507172637 | 55 | 92 | 6.0 | 10.0 | 0.00 | 0.00 | 0.00 | 28 | 1012.2 |
| 20260507172135 | 54 | 187 | 1.0 | 2.0 | 0.00 | 0.00 | 0.00 | 32 | 1012.1 |
| 20260507171635 | 55 | 36 | 4.0 | 5.0 | 0.00 | 0.00 | 0.00 | 29 | 1012.3 |
| 20260507171133 | 54 | 92 | 4.0 | 7.0 | 0.00 | 0.00 | 0.00 | 31 | 1012.2 |
| 20260507170630 | 55 | 128 | 3.0 | 5.0 | 0.00 | 0.00 | 0.00 | 32 | 1012.2 |
| 20260507170127 | 55 | 102 | 2.0 | 2.0 | 0.00 | 0.00 | 0.00 | 32 | 1012.4 |
| 20260507165622 | 55 | 174 | 2.0 | 3.0 | 0.00 | 0.00 | 0.00 | 35 | 1012.3 |
| 20260507165119 | 54 | 190 | 3.0 | 5.0 | 0.00 | 0.00 | 0.00 | 32 | 1012.3 |
| 20260507164614 | 54 | 172 | 0.0 | 2.0 | 0.00 | 0.00 | 0.00 | 36 | 1012.5 |
| 20260507164112 | 53 | 15 | 5.0 | 7.0 | 0.00 | 0.00 | 0.00 | 34 | 1012.3 |
| 20260507163609 | 53 | 14 | 4.0 | 5.0 | 0.00 | 0.00 | 0.00 | 31 | 1012.5 |
| 20260507163108 | 52 | 268 | 1.0 | 3.0 | 0.00 | 0.00 | 0.00 | 35 | 1012.5 |
| 20260507162607 | 53 | 30 | 2.0 | 3.0 | 0.00 | 0.00 | 0.00 | 34 | 1012.8 |
| 20260507162105 | 53 | 124 | 0.0 | 2.0 | 0.00 | 0.00 | 0.00 | 33 | 1012.7 |
| 20260507161600 | 53 | 343 | 3.0 | 3.0 | 0.00 | 0.00 | 0.00 | 33 | 1012.6 |
| 20260507161057 | 54 | 70 | 2.0 | 2.0 | 0.00 | 0.00 | 0.00 | 32 | 1012.8 |
| 20260507160554 | 54 | 178 | 3.0 | 3.0 | 0.00 | 0.00 | 0.00 | 35 | 1012.7 |
| 20260507160050 | 52 | 156 | 0.0 | 0.0 | 0.00 | 0.00 | 0.00 | 34 | 1012.8 |
| 20260507155545 | 53 | 142 | 3.0 | 3.0 | 0.00 | 0.00 | 0.00 | 34 | 1012.7 |
| 20260507155043 | 52 | 199 | 2.0 | 3.0 | 0.00 | 0.00 | 0.00 | 35 | 1012.9 |
| 20260507154540 | 52 | 245 | 5.0 | 7.0 | 0.00 | 0.00 | 0.00 | 35 | 1013.1 |
| 20260507154037 | 52 | 338 | 4.0 | 5.0 | 0.00 | 0.00 | 0.00 | 36 | 1012.7 |
| 20260507153534 | 52 | 138 | 5.0 | 7.0 | 0.00 | 0.00 | 0.00 | 33 | 1012.7 |
| 20260507153030 | 52 | 354 | 2.0 | 3.0 | 0.00 | 0.00 | 0.00 | 38 | 1012.8 |
| 20260507152525 | 52 | 166 | 0.0 | 0.0 | 0.00 | 0.00 | 0.00 | 37 | 1012.9 |
| 20260507152022 | 51 | 151 | 0.0 | 0.0 | 0.00 | 0.00 | 0.00 | 37 | 1012.9 |
| 20260507151518 | 51 | 185 | 0.0 | 0.0 | 0.00 | 0.00 | 0.00 | 37 | 1013.1 |
| 20260507151015 | 51 | 289 | 2.0 | 3.0 | 0.00 | 0.00 | 0.00 | 40 | 1013.1 |
| 20260507150512 | 51 | 100 | 4.0 | 5.0 | 0.00 | 0.00 | 0.00 | 38 | 1013.1 |
| 20260507150009 | 50 | 192 | 2.0 | 2.0 | 0.00 | 0.00 | 0.00 | 38 | 1012.8 |
| 20260507145504 | 50 | 177 | 2.0 | 3.0 | 0.00 | 0.00 | 0.00 | 39 | 1012.7 |
| 20260507145002 | 49 | 130 | 3.0 | 3.0 | 0.00 | 0.00 | 0.00 | 40 | 1013.1 |
| 20260507144458 | 49 | 165 | 0.0 | 2.0 | 0.00 | 0.00 | 0.00 | 41 | 1013.1 |
| 20260507143955 | 49 | 156 | 0.0 | 2.0 | 0.00 | 0.00 | 0.00 | 41 | 1013.1 |
| 20260507143453 | 49 | 346 | 1.0 | 2.0 | 0.00 | 0.00 | 0.00 | 41 | 1013.1 |
| 20260507142949 | 48 | 181 | 1.0 | 2.0 | 0.00 | 0.00 | 0.00 | 41 | 1013.1 |
| 20260507142445 | 48 | 164 | 2.0 | 3.0 | 0.00 | 0.00 | 0.00 | 41 | 1013.3 |
| 20260507141943 | 47 | 169 | 0.0 | 0.0 | 0.00 | 0.00 | 0.00 | 44 | 1013.2 |
| 20260507141438 | 47 | 89 | 3.0 | 3.0 | 0.00 | 0.00 | 0.00 | 45 | 1013.2 |
| 20260507140935 | 47 | 163 | 0.0 | 2.0 | 0.00 | 0.00 | 0.00 | 46 | 1013.3 |
| 20260507140432 | 47 | 144 | 2.0 | 3.0 | 0.00 | 0.00 | 0.00 | 44 | 1013.2 |
| 20260507135930 | 48 | 213 | 1.0 | 2.0 | 0.00 | 0.00 | 0.00 | 45 | 1013.2 |
| 20260507135426 | 47 | 157 | 0.0 | 0.0 | 0.00 | 0.00 | 0.00 | 46 | 1013.1 |
| 20260507134924 | 46 | 160 | 1.0 | 2.0 | 0.00 | 0.00 | 0.00 | 49 | 1013.2 |
| 20260507134420 | 45 | 194 | 2.0 | 3.0 | 0.00 | 0.00 | 0.00 | 50 | 1013.5 |
| 20260507133916 | 44 | 238 | 0.0 | 2.0 | 0.00 | 0.00 | 0.00 | 52 | 1013.3 |
| 20260507133412 | 43 | 179 | 1.0 | 2.0 | 0.00 | 0.00 | 0.00 | 54 | 1013.3 |
| 20260507132911 | 43 | 110 | 1.0 | 2.0 | 0.00 | 0.00 | 0.00 | 57 | 1013.4 |
| 20260507132407 | 42 | 163 | 0.0 | 0.0 | 0.00 | 0.00 | 0.00 | 59 | 1013.4 |
| 20260507131905 | 42 | 312 | 2.0 | 2.0 | 0.00 | 0.00 | 0.00 | 61 | 1013.4 |
| 20260507131400 | 41 | 163 | 0.0 | 0.0 | 0.00 | 0.00 | 0.00 | 63 | 1013.5 |
| 20260507130857 | 41 | 162 | 0.0 | 0.0 | 0.00 | 0.00 | 0.00 | 65 | 1013.5 |
| 20260507130354 | 40 | 94 | 2.0 | 2.0 | 0.00 | 0.00 | 0.00 | 67 | 1013.5 |
| 20260507125853 | 39 | 177 | 0.0 | 0.0 | 0.00 | 0.00 | 0.00 | 70 | 1013.5 |
| 20260507125350 | 38 | 168 | 0.0 | 0.0 | 0.00 | 0.00 | 0.00 | 75 | 1013.6 |
| 20260507124848 | 38 | 154 | 0.0 | 0.0 | 0.00 | 0.00 | 0.00 | 78 | 1013.6 |
| 20260507124344 | 37 | 167 | 0.0 | 0.0 | 0.00 | 0.00 | 0.00 | 83 | 1013.6 |
| 20260507123843 | 36 | 164 | 0.0 | 0.0 | 0.00 | 0.00 | 0.00 | 87 | 1013.6 |
| 20260507123339 | 35 | 164 | 0.0 | 0.0 | 0.00 | 0.00 | 0.00 | 90 | 1013.6 |
| 20260507122835 | 34 | 167 | 0.0 | 0.0 | 0.00 | 0.00 | 0.00 | 93 | 1013.7 |
| 20260507122331 | 32 | 164 | 0.0 | 0.0 | 0.00 | 0.00 | 0.00 | 95 | 1013.7 |
| 20260507121828 | 31 | 163 | 0.0 | 0.0 | 0.00 | 0.00 | 0.00 | 94 | 1013.7 |
| 20260507121323 | 30 | 163 | 0.0 | 0.0 | 0.00 | 0.00 | 0.00 | 94 | 1013.7 |
| 20260507120820 | 30 | 163 | 0.0 | 0.0 | 0.00 | 0.00 | 0.00 | 94 | 1013.6 |
| 20260507120316 | 29 | 163 | 0.0 | 0.0 | 0.00 | 0.00 | 0.00 | 93 | 1013.6 |
| 20260507115812 | 29 | 163 | 0.0 | 0.0 | 0.00 | 0.00 | 0.00 | 93 | 1013.7 |
| 20260507115308 | 29 | 163 | 0.0 | 0.0 | 0.00 | 0.00 | 0.00 | 93 | 1013.7 |
| 20260507114804 | 29 | 163 | 0.0 | 0.0 | 0.00 | 0.00 | 0.00 | 93 | 1013.5 |
| 20260507114301 | 28 | 163 | 0.0 | 0.0 | 0.00 | 0.00 | 0.00 | 93 | 1013.6 |
| 20260507113759 | 28 | 163 | 0.0 | 0.0 | 0.00 | 0.00 | 0.00 | 93 | 1013.7 |
| 20260507113256 | 28 | 163 | 0.0 | 0.0 | 0.00 | 0.00 | 0.00 | 92 | 1013.7 |
| 20260507112753 | 28 | 163 | 0.0 | 0.0 | 0.00 | 0.00 | 0.00 | 92 | 1013.6 |
| 20260507112250 | 28 | 163 | 0.0 | 0.0 | 0.00 | 0.00 | 0.00 | 92 | 1013.2 |
| 20260507111748 | 28 | 163 | 0.0 | 0.0 | 0.00 | 0.00 | 0.00 | 92 | 1013.5 |
| 20260507111244 | 28 | 163 | 0.0 | 0.0 | 0.00 | 0.00 | 0.00 | 92 | 1013.5 |
| 20260507110740 | 28 | 160 | 0.0 | 0.0 | 0.00 | 0.00 | 0.00 | 92 | 1013.5 |
| 20260507110237 | 28 | 159 | 0.0 | 0.0 | 0.00 | 0.00 | 0.00 | 92 | 1013.2 |
| 20260507105734 | 28 | 167 | 0.0 | 0.0 | 0.00 | 0.00 | 0.00 | 92 | 1013.5 |
| 20260507105230 | 28 | 167 | 0.0 | 0.0 | 0.00 | 0.00 | 0.00 | 92 | 1013.5 |
| 20260507104727 | 29 | 167 | 0.0 | 0.0 | 0.00 | 0.00 | 0.00 | 92 | 1013.5 |
| 20260507104224 | 28 | 167 | 0.0 | 0.0 | 0.00 | 0.00 | 0.00 | 92 | 1013.4 |
| 20260507103720 | 28 | 167 | 0.0 | 0.0 | 0.00 | 0.00 | 0.00 | 91 | 1013.4 |
| 20260507103216 | 28 | 167 | 0.0 | 0.0 | 0.00 | 0.00 | 0.00 | 91 | 1013.4 |
| 20260507102713 | 28 | 167 | 0.0 | 0.0 | 0.00 | 0.00 | 0.00 | 91 | 1013.3 |
| 20260507102209 | 29 | 167 | 0.0 | 0.0 | 0.00 | 0.00 | 0.00 | 91 | 1013.3 |
| 20260507101705 | 29 | 167 | 0.0 | 0.0 | 0.00 | 0.00 | 0.00 | 91 | 1013.3 |
| 20260507101201 | 29 | 167 | 0.0 | 0.0 | 0.00 | 0.00 | 0.00 | 90 | 1013.5 |
| 20260507100658 | 29 | 167 | 0.0 | 0.0 | 0.00 | 0.00 | 0.00 | 90 | 1013.6 |
| 20260507100157 | 29 | 167 | 0.0 | 0.0 | 0.00 | 0.00 | 0.00 | 90 | 1013.5 |
| 20260507095654 | 29 | 167 | 0.0 | 0.0 | 0.00 | 0.00 | 0.00 | 90 | 1013.5 |
| 20260507095151 | 29 | 167 | 0.0 | 0.0 | 0.00 | 0.00 | 0.00 | 90 | 1013.6 |
| 20260507094647 | 29 | 167 | 0.0 | 0.0 | 0.00 | 0.00 | 0.00 | 89 | 1013.7 |
| 20260507094144 | 29 | 167 | 0.0 | 0.0 | 0.00 | 0.00 | 0.00 | 89 | 1013.5 |
| 20260507093642 | 29 | 167 | 0.0 | 0.0 | 0.00 | 0.00 | 0.00 | 89 | 1013.5 |
| 20260507093141 | 29 | 167 | 0.0 | 0.0 | 0.00 | 0.00 | 0.00 | 89 | 1013.5 |
| 20260507092636 | 30 | 167 | 0.0 | 0.0 | 0.00 | 0.00 | 0.00 | 89 | 1013.6 |
| 20260507092133 | 29 | 167 | 0.0 | 0.0 | 0.00 | 0.00 | 0.00 | 89 | 1013.7 |
| 20260507091629 | 30 | 167 | 0.0 | 0.0 | 0.00 | 0.00 | 0.00 | 88 | 1013.7 |
| 20260507091125 | 29 | 167 | 0.0 | 0.0 | 0.00 | 0.00 | 0.00 | 88 | 1013.6 |
| 20260507090621 | 30 | 167 | 0.0 | 0.0 | 0.00 | 0.00 | 0.00 | 88 | 1013.6 |
| 20260507090119 | 29 | 167 | 0.0 | 0.0 | 0.00 | 0.00 | 0.00 | 88 | 1013.7 |
| 20260507085616 | 29 | 167 | 0.0 | 0.0 | 0.00 | 0.00 | 0.00 | 88 | 1013.5 |
| 20260507085112 | 29 | 167 | 0.0 | 0.0 | 0.00 | 0.00 | 0.00 | 87 | 1013.7 |
| 20260507084609 | 29 | 167 | 0.0 | 0.0 | 0.00 | 0.00 | 0.00 | 87 | 1013.7 |
| 20260507084106 | 29 | 167 | 0.0 | 0.0 | 0.00 | 0.00 | 0.00 | 87 | 1013.7 |
| 20260507083603 | 30 | 167 | 0.0 | 0.0 | 0.00 | 0.00 | 0.00 | 86 | 1013.6 |
| 20260507083100 | 30 | 167 | 0.0 | 0.0 | 0.00 | 0.00 | 0.00 | 86 | 1013.6 |
| 20260507082555 | 30 | 167 | 0.0 | 0.0 | 0.00 | 0.00 | 0.00 | 87 | 1013.5 |
| 20260507082052 | 30 | 167 | 0.0 | 0.0 | 0.00 | 0.00 | 0.00 | 86 | 1013.5 |
| 20260507081548 | 30 | 167 | 0.0 | 0.0 | 0.00 | 0.00 | 0.00 | 86 | 1013.6 |
| 20260507081045 | 30 | 167 | 0.0 | 0.0 | 0.00 | 0.00 | 0.00 | 86 | 1013.8 |
| 20260507080541 | 30 | 167 | 0.0 | 0.0 | 0.00 | 0.00 | 0.00 | 86 | 1013.6 |
| 20260507080038 | 30 | 167 | 0.0 | 0.0 | 0.00 | 0.00 | 0.00 | 85 | 1013.7 |
| 20260507075533 | 30 | 167 | 0.0 | 0.0 | 0.00 | 0.00 | 0.00 | 85 | 1013.6 |
| 20260507075030 | 30 | 167 | 0.0 | 0.0 | 0.00 | 0.00 | 0.00 | 85 | 1013.9 |
| 20260507074526 | 31 | 167 | 0.0 | 0.0 | 0.00 | 0.00 | 0.00 | 85 | 1013.9 |
| 20260507074025 | 31 | 167 | 0.0 | 0.0 | 0.00 | 0.00 | 0.00 | 85 | 1013.9 |
| 20260507073521 | 30 | 167 | 0.0 | 0.0 | 0.00 | 0.00 | 0.00 | 85 | 1013.8 |
| 20260507073018 | 30 | 167 | 0.0 | 0.0 | 0.00 | 0.00 | 0.00 | 84 | 1013.7 |
| 20260507072515 | 30 | 167 | 0.0 | 0.0 | 0.00 | 0.00 | 0.00 | 83 | 1013.9 |
| 20260507072012 | 30 | 167 | 0.0 | 0.0 | 0.00 | 0.00 | 0.00 | 83 | 1013.7 |
| 20260507071509 | 30 | 167 | 0.0 | 0.0 | 0.00 | 0.00 | 0.00 | 82 | 1014.0 |
| 20260507071006 | 31 | 167 | 0.0 | 0.0 | 0.00 | 0.00 | 0.00 | 81 | 1014.0 |
| 20260507070503 | 31 | 167 | 0.0 | 0.0 | 0.00 | 0.00 | 0.00 | 81 | 1014.0 |
| 20260507070000 | 32 | 167 | 0.0 | 0.0 | 0.00 | 0.00 | 0.00 | 80 | 1014.1 |